Miscellaneous Local Product
Issued by NWS North Platte, NE

Home | Current Version | Previous Version | Text Only | Print | Product List | Glossary On
Versions: 1 2 3 4 5 6 7 8 9 10 11 12 13 14 15 16 17 18 19 20 21 22 23 24 25 26 27 28 29 30 31 32 33 34 35 36 37 38 39 40 41 42 43 44 45 46 47 48 49 50
000
AXUS43 KLBF 171710
MISLBF


WESTERN AND NORTH CENTRAL NEBRASKA HOURLY WEATHER ROUNDUP
NATIONAL WEATHER SERVICE NORTH PLATTE NE
1200 PM CDT WED SEP 17 2014

***STATIONS NOT REPORTING VARIABLES SUCH AS SKY/WEATHER OR
PRESSURE ARE PROVIDED BY THE NEBRASKA DEPARTMENT OF
ROADS...RAWS...AND APRS NETWORKS...AND ARE NOT UNDER
NATIONAL WEATHER SERVICE QUALITY CONTROL***

...OBSERVATIONS IN AND NEAR THE EASTERN PANHANDLE OF NEBRASKA...

CITY           SKY/WX    TMP DP  RH WIND       PRES   REMARKS
PINE RIDGE     MOSUNNY   71  52  50 CALM      29.99S
CHADRON        SUNNY     75  50  41 CALM      29.97F
ALLIANCE       SUNNY     78  48  34 NE7       29.99S
SIDNEY         SUNNY     80  43  26 N7        30.02S
WHITECLAY        N/A     72  49  43 S3          N/A
RUSHVILLE        N/A     81  45  27 NE12        N/A
LISCO            N/A     77  47  33 SW5         N/A
BIG SPRINGS      N/A     69  53  57 CALM        N/A
$$

...OBSERVATIONS IN NORTH CENTRAL NEBRASKA...

CITY           SKY/WX    TMP DP  RH WIND       PRES   REMARKS
VALENTINE      SUNNY     78  58  49 E8        29.94S
THEDFORD       SUNNY     79  59  50 E6        29.95S
AINSWORTH      SUNNY     74  59  59 E7        29.95S
O`NEILL        SUNNY     73  63  72 E6        29.94S
ORD            SUNNY     73  62  68 CALM      29.91F
BROKEN BOW     SUNNY     82  60  47 E7        29.93S
SPRINGVIEW       N/A     72  60  66 SE5         N/A
ROSE             N/A     82  62  51 NE5         N/A
NEWPORT          N/A     75  63  64 E5          N/A
COMSTOCK         N/A     82  68  61 E5          N/A
CHAMBERS         N/A     77  65  66 E3          N/A
$$

...OBSERVATIONS IN SOUTHWEST NEBRASKA AND FAR NORTHEAST COLORADO...

CITY           SKY/WX    TMP DP  RH WIND       PRES   REMARKS
WRAY           FAIR      83  45  26 SW6       29.99S
HOLYOKE        FAIR      81  54  39 CALM      29.99F
IMPERIAL       SUNNY     79  52  38 SE6       29.97F
OGALLALA       SUNNY     77  60  55 E3        29.97R
NORTH PLATTE   SUNNY     70  59  68 CALM      29.95F
MCCOOK         SUNNY     68  58  70 CALM      29.96S
LEXINGTON      SUNNY     73  63  72 E6        29.93S
PAXTON           N/A     62  61  97 CALM        N/A
SUTHERLAND       N/A     76  66  71 E3          N/A
BRADY            N/A     69  61  76 CALM        N/A
GOTHENBURG       N/A     70  56  60 CALM        N/A
CALLAWAY         N/A     73  65  77 E3          N/A
$$

...SOME WEATHER OBSERVATIONS FROM AROUND THE REGION...

CITY           SKY/WX    TMP DP  RH WIND       PRES   REMARKS
DENVER         PTSUNNY   80  37  21 CALM      30.10F
LARAMIE        SUNNY     73  37  27 VRB3      30.22F
CHEYENNE       SUNNY     79  35  20 N7        30.14S
SCOTTSBLUFF    SUNNY     77  47  34 W8        30.01F
RAPID CITY     MOSUNNY   74  48  39 VRB7      29.98S
PIERRE         SUNNY     74  53  48 E9        29.94R
WINNER         FAIR      75  57  53 E10       29.94S
SIOUX FALLS    MOSUNNY   69  56  62 VRB6      29.94S
OMAHA          MOSUNNY   72  61  68 S3        29.94S
GRAND ISLAND   SUNNY     72  59  63 E7        29.94S
KANSAS CITY    CLOUDY    68  66  93 CALM      29.94S
WICHITA        MOSUNNY   88  65  46 SW15      29.89F HX  90
HAYS           SUNNY     73  63  68 NE3       29.93S
LIBERAL        PTSUNNY   82  63  51 SW15      29.98F
GOODLAND       SUNNY     81  54  39 E8        30.00S
$$



USA.gov is the U.S. government's official web portal to all federal, state and local government web resources and services.